This demonstration page uses our WeatherBlox Daily Observations layout. Learn more.

Left ArrowRight Arrow

38.88101, -77.10428

Hourly Observations for September 9, 2022

Temp ( °F °C ) Dew Point ( °F °C ) Humidity (%) Winds ( mph kmh ) Pressure ( in mb ) Visibility ( mi km ) Precip ( " mm )
12:52 am 00:52 Mostly Clear 68 20 64 17.8 87 87 NNW 6 9 29.95 1014 10 16 0.00 0.00
1:52 am 01:52 Clear 68 20 64 17.8 87 87 N 3 6 29.95 1014 10 16 0.00 0.00
2:52 am 02:52 Clear 67 19.4 64 17.8 90 90 NNW 5 7 29.96 1014 10 16 0.00 0.00
3:52 am 03:52 Clear 67 19.4 63 17.2 87 87 Calm 29.97 1015 10 16 0.00 0.00
4:52 am 04:52 Clear 66 18.9 63 17.2 90 90 Calm 29.97 1015 10 16 0.00 0.00
5:52 am 05:52 Clear 67 19.4 63 17.2 87 87 Calm 29.99 1016 10 16 0.00 0.00
6:52 am 06:52 Sunny 66 18.9 63 17.2 90 90 N 3 6 30.01 1016 10 16 0.00 0.00
7:52 am 07:52 Sunny 68 20 64 17.8 87 87 NE 6 9 30.03 1017 10 16 0.00 0.00
8:52 am 08:52 Sunny 72 22.2 65 18.3 79 79 NE 6 9 30.05 1018 10 16 0.00 0.00
9:52 am 09:52 Sunny 76 24.4 66 18.9 71 71 NNE 3 6 30.06 1018 10 16 0.00 0.00
10:52 am 10:52 Sunny 78 25.6 63 17.2 60 60 ENE 9 15 30.07 1018 10 16 0.00 0.00
11:07 am 11:07 Partly Cloudy 79 26.1 62 16.7 56 56 ENE 10 17 30.07 1018 10 16 0.00 0.00
11:52 am 11:52 Partly Cloudy 81 27.2 62 16.7 53 53 NE 8 13 30.06 1018 10 16 0.00 0.00
12:52 pm 12:52 Partly Cloudy 80 26.7 59 15 49 49 NE 13 20 30.05 1018 10 16 0.00 0.00
1:52 pm 13:52 Partly Cloudy 83 28.3 58 14.4 43 43 VRB 3 6 30.05 1018 10 16 0.00 0.00
2:52 pm 14:52 Partly Cloudy 83 28.3 57 13.9 41 41 E 14 22 30.05 1018 10 16 0.00 0.00
3:52 pm 15:52 Mostly Sunny 83 28.3 59 15 44 44 NE 9 15 30.04 1017 10 16 0.00 0.00
4:52 pm 16:52 Mostly Sunny 82 27.8 55 12.8 40 40 E 9 15 30.06 1018 10 16 0.00 0.00
5:52 pm 17:52 Mostly Sunny 81 27.2 57 13.9 44 44 E 7 11 30.06 1018 10 16 0.00 0.00
6:52 pm 18:52 Mostly Sunny 78 25.6 55 12.8 45 45 ESE 9 15 30.07 1018 10 16 0.00 0.00
7:52 pm 19:52 Mostly Clear 76 24.4 55 12.8 48 48 ESE 7 11 30.09 1019 10 16 0.00 0.00
8:52 pm 20:52 Mostly Clear 75 23.9 56 13.3 51 51 E 6 9 30.11 1020 10 16 0.00 0.00
9:52 pm 21:52 Mostly Clear 73 22.8 58 14.4 59 59 ESE 8 13 30.13 1020 10 16 0.00 0.00
10:52 pm 22:52 Mostly Clear 72 22.2 62 16.7 71 71 SE 10 17 30.15 1021 10 16 0.00 0.00
11:52 pm 23:52 Mostly Clear 70 21.1 63 17.2 78 78 SE 10 17 30.16 1022 10 16 0.00 0.00

Powered by AerisWeather